Change the Weather History Date:

Saturday, July 26, 2014

  Actual Average Record
Temperature  
Mean Temperature 81 °F 78 °F  
Max Temperature 93 °F 90 °F 103 °F (2012)
Min Temperature 69 °F 66 °F 55 °F (2000)
Degree Days  
Heating Degree Days 0 0  
Month to date heating degree days 2 0  
Since 1 June heating degree days 4 5  
Since 1 July heating degree days 2 0  
Cooling Degree Days 16 13  
Month to date cooling degree days 199 334  
Year to date cooling degree days 614 722  
Since 1 June cooling degree days 464 600  
Growing Degree Days 32 (Base 50)    
Moisture  
Dew Point 71 °F    
Average Humidity 73    
Maximum Humidity 97    
Minimum Humidity 49    
Precipitation  
Precipitation 0.00 in 0.10 in 1.84 in (1980)
Month to date precipitation 1.62 3.08  
Year to date precipitation 18.83 26.37  
Sea Level Pressure  
Sea Level Pressure 29.93 in    
Wind  
Wind Speed 9 mph (SW)    
Max Wind Speed 18 mph    
Max Gust Speed 24 mph    
Visibility 9 miles    
Events      
T = Trace of Precipitation, MM = Missing Value Source: NWS Daily Summary

Daily Weather History Graph

Daily Weather History Graph

Search for Another Location

Airport or City:

Trip Planner

Search our weather history database for the weather conditions in past years. The results will help you decide how hot, cold, wet, or windy it might be!

Date:

Astronomy

Jul. 26, 2014 Rise Set
Actual Time 6:08 AM CDT 8:19 PM CDT
Civil Twilight 5:39 AM CDT 8:48 PM CDT
Nautical Twilight 5:03 AM CDT 9:24 PM CDT
Astronomical Twilight 4:24 AM CDT 10:02 PM CDT
Moon 5:59 AM CDT (7/26) 7:56 PM CDT (7/26)
Length of Visible Light 15h 09m
Length of Day
14h 11m
Waning Crescent, 0% of the Moon is Illuminated
Jul 26
Waning Crescent
Jul 26
New
Aug 3
First Quarter
Aug 10
Full
Aug 17
Last Quarter

Hourly Weather History & Observations

Time (CDT) Temp. Heat Index Dew Point Humidity Pressure Visibility Wind Dir Wind Speed Gust Speed Precip Events Conditions
12:53 AM 72.0 °F - 68.0 °F 87% 29.94 in 10.0 mi South 5.8 mph - N/A   Clear
1:53 AM 72.0 °F - 68.0 °F 87% 29.94 in 10.0 mi SSW 4.6 mph - N/A   Clear
2:53 AM 71.1 °F - 68.0 °F 90% 29.94 in 10.0 mi South 3.5 mph - N/A   Clear
3:53 AM 70.0 °F - 68.0 °F 93% 29.93 in 8.0 mi SSW 4.6 mph - N/A   Clear
4:53 AM 70.0 °F - 68.0 °F 93% 29.93 in 7.0 mi South 4.6 mph - N/A   Clear
5:53 AM 70.0 °F - 68.0 °F 93% 29.95 in 5.0 mi SW 4.6 mph - N/A   Clear
6:53 AM 71.1 °F - 69.1 °F 93% 29.95 in 4.0 mi SW 5.8 mph - N/A   Clear
7:53 AM 73.9 °F - 71.1 °F 91% 29.96 in 5.0 mi WSW 8.1 mph - N/A   Clear
8:53 AM 79.0 °F - 72.0 °F 79% 29.96 in 7.0 mi WSW 10.4 mph - N/A   Clear
10:53 AM 86.0 °F 92.2 °F 72.0 °F 63% 29.96 in 10.0 mi West 12.7 mph 19.6 mph N/A   Clear
12:53 PM 91.0 °F 98.2 °F 72.0 °F 53% 29.93 in 10.0 mi WSW 11.5 mph 19.6 mph N/A   Clear
1:53 PM 91.0 °F 98.2 °F 72.0 °F 53% 29.92 in 10.0 mi SW 11.5 mph - N/A   Clear
2:53 PM 93.0 °F 100.7 °F 72.0 °F 50% 29.91 in 10.0 mi South 9.2 mph 17.3 mph N/A   Clear
3:53 PM 93.0 °F 100.7 °F 72.0 °F 50% 29.90 in 10.0 mi South 10.4 mph - N/A   Clear
5:53 PM 89.1 °F 98.0 °F 73.9 °F 61% 29.89 in 10.0 mi SSW 8.1 mph - N/A   Clear
6:53 PM 89.1 °F 98.0 °F 73.9 °F 61% 29.89 in 10.0 mi SSW 10.4 mph - N/A   Clear
7:53 PM 87.1 °F 95.4 °F 73.9 °F 65% 29.91 in 10.0 mi SSW 6.9 mph - N/A   Clear
8:53 PM 84.0 °F 90.2 °F 73.0 °F 69% 29.91 in 10.0 mi SSW 6.9 mph - N/A   Clear
9:53 PM 82.0 °F 86.7 °F 72.0 °F 71% 29.92 in 10.0 mi SW 9.2 mph - N/A   Clear
10:53 PM 80.1 °F 83.8 °F 72.0 °F 76% 29.92 in 10.0 mi SW 9.2 mph - N/A   Clear
11:53 PM 80.1 °F 84.2 °F 73.0 °F 79% 29.91 in 10.0 mi SW 11.5 mph - N/A   Clear